Torna al catalogo

YUNHAI 2-2E

AttivoMeteoLEO
NORAD 59284·PAYLOAD·🇨🇳 China

Lanciato Mar 21, 2024 da Jiuquan Satellite Launch Center

Loading…

Prossimi Passaggi (prossime 24 ore)

TLE

AggiornatoSource: Space-Track

Epoca: Sep 14, 2026, 21:54 UTC

1 59284U 24052E   26257.91314731 -.00000089  00000-0  29041-4 0  9990
2 59284  50.0110 302.5649 0011690  12.1751 347.9444 14.27990219119752

Traccia YUNHAI 2-2E in tempo reale con AllMySat

Download on the App Store